Location: Carthage
(33.8834°N, 106.6595°W)
Time: 10:49:34
(UTC+00:00)

ISS - Pass Details

Date: 13 February 2026
Orbit: 415 x 426 km, 51.6° (Epoch: 11 March)

Event Time Altitude Azimuth Distance (km) Brightness Sun altitude
Exits shadow 12:15:16 61° 160° (SSE) 473 -3.5 -20.8°
Maximum altitude 12:15:29 64° 134° (SE) 464 -3.5 -20.8°
Drops below altitude 10° 12:18:47 10° 53° (NE) 1,489 -0.3 -20.1°
Sets 12:20:54 0° 50° (NE) 2,354 0.8 -19.7°
